Regional Weather Roundup
Issued by NWS Sterling, VA

Home | Current Version | Previous Version | Text Only | Print | Product List | Glossary On
Versions: 1 2 3 4 5 6 7 8 9 10 11 12 13 14 15 16 17 18 19 20 21 22 23 24 25 26 27 28 29 30 31 32 33 34 35 36 37 38 39 40 41 42 43 44 45 46 47 48 49 50
000
ASUS41 KLWX 251210
RWRLWX

REGIONAL WEATHER ROUNDUP
NATIONAL WEATHER SERVICE BALTIMORE MD/WASHINGTON DC
800 AM EDT SAT APR 25 2015

Note: "FAIR" indicates few or no clouds below 12,000 feet
with no significant weather and/or obstructions to visibility.
 TC=TEMPERATURE CELSIUS

 * =Non NWS site. Station does not report precipitation (e.g. rain,
    snow, etc.), thunder, or fog.

DCZ001-MDZ009-015-VAZ040>042-051-053>054-251300-
WASHINGTON METRO

CITY           SKY/WX    TMP DP  RH WIND       PRES   REMARKS
WASHINGTON NAT CLOUDY    48  29  47 NE6       29.99S
DULLES         CLOUDY    44  19  36 N8        29.97S
ANDREWS AFB    CLOUDY    44  30  59 VRB3      29.97S
FT BELVOIR     CLOUDY    46  28  49 N2        29.98R
QUANTICO       CLOUDY    49  28  44 E9        29.99R
COLLEGE PARK*  CLOUDY    43  30  61 CALM      29.97F
LEESBURG*      CLOUDY    45  23  42 N8        29.98S
MANASSAS*      CLOUDY    46  21  36 N6        29.98R
GAITHERSBURG*  CLOUDY    41  19  42 CALM      30.02R

$$

MDZ006>007-011-014-251300-
BALTIMORE METRO

CITY           SKY/WX    TMP DP  RH WIND       PRES   REMARKS
BWI AIRPORT    LGT RAIN  41  32  70 CALM      29.98R
MD SCIENCE CTR   N/A     45  22  40 MISG      29.99R
MARTIN STATE   CLOUDY    41  30  65 CALM      30.01R
ANNAPOLIS      CLOUDY    45  28  51 E3        29.98S
FORT MEADE*    CLOUDY    37  34  87 CALM      30.00F

$$

MDZ012-015-019>023-251300-
MARYLAND EASTERN SHORE

CITY           SKY/WX    TMP DP  RH WIND       PRES   REMARKS
OCEAN CITY     CLOUDY    45  26  47 NE9       29.97S
SALISBURY      CLOUDY    41  32  70 NE7       29.96F
BAY BRIDGE AP*   N/A    N/A N/A N/A CALM      29.98S
CAMBRIDGE*     PTSUNNY   43  30  61 NE3       29.97S
EASTON*        MOSUNNY   43  32  65 E3        30.00F

$$

MDZ017>025-251300-
SOUTHERN MARYLAND

CITY           SKY/WX    TMP DP  RH WIND       PRES   REMARKS
PATUXENT RIVER CLOUDY    45  36  70 E10       29.97S
ST INIGOES     CLOUDY    47  36  65 E8        29.96F
LEONARDTOWN*   CLOUDY    45  34  65 E3        29.99R

$$

MDZ003>005-251300-
NORTH CENTRAL MARYLAND

CITY           SKY/WX    TMP DP  RH WIND       PRES   REMARKS
FREDERICK*     CLOUDY    43  23  45 CALM      30.04R
HAGERSTOWN APT CLOUDY    40  20  44 NW5       29.99R
WESTMINSTER*   NOT AVBL

$$

MDZ501>502-251300-
WESTERN MARYLAND

CITY           SKY/WX    TMP DP  RH WIND       PRES   REMARKS
OAKLAND*       CLOUDY    34  12  40 NE5       29.91F
CUMBERLAND*    CLOUDY    43  21  42 N7        30.03S

$$

VAZ025>031-251300-
SHENANDOAH VALLEY

CITY           SKY/WX    TMP DP  RH WIND       PRES   REMARKS
WINCHESTER*    CLOUDY    43  12  28 CALM      29.98R
FRONT ROYAL*   CLOUDY    43  27  52 CALM      29.96F
LURAY*         CLOUDY    46  27  46 N8        29.96S
NEW MARKET*    CLOUDY    41  33  74 CALM      29.95S
STAUNTON*      CLOUDY    43  35  73 NE3       29.96R
WAYNESBORO*    CLOUDY    45  29  53 CALM      29.94R

$$

WVZ021-048>050-054>055-251300-
EASTERN WEST VIRGINIA PANHANDLE

CITY           SKY/WX    TMP DP  RH WIND       PRES   REMARKS
MARTINSBURG    CLOUDY    43  16  33 N5        30.00R
PETERSBURG*    CLOUDY    39  30  70 CALM      29.98S

$$

VAZ036>039-050-251300-
CENTRAL FOOTHILLS

CITY           SKY/WX    TMP DP  RH WIND       PRES   REMARKS
CHARLOTTESVILL CLOUDY    45  29  53 NW3       29.96S
CULPEPER*      CLOUDY    48  23  37 N5        29.97F
ORANGE*        CLOUDY    46  34  61 CALM      29.98S
GORDONSVILLE*  PTSUNNY   44  34  67 CALM      29.97R
WARRENTON*     CLOUDY    47  27  45 NE3       29.96S

$$

VAZ055>057-251300-
NORTH AND CENTRAL PIEDMONT

CITY           SKY/WX    TMP DP  RH WIND       PRES   REMARKS
FREDERICKSBRG* CLOUDY    49  33  53 NE3       29.96F
STAFFORD*      CLOUDY    47  18  30 N5        30.01S

$$

NCZ024-NYZ072-PAZ021-071-VAZ022-071-251300-
OTHER REGIONAL OBSERVATIONS

CITY           SKY/WX    TMP DP  RH WIND       PRES   REMARKS
NEW YORK CITY  SUNNY     40  22  48 VRB5G18   29.94R
PHILADELPHIA   PTSUNNY   43  21  41 NW12      29.96F
PITTSBURGH     LGT SNOW  33  32  96 S5        29.94F FOG
ROANOKE        LGT RAIN  44  41  89 W3        29.98R FOG
RICHMOND       CLOUDY    49  32  52 N5        29.95F
RALEIGH        CLOUDY    52  42  69 SE3       29.92F

$$

ANZ530>537-251300-
MARINE OBSERVATIONS

STATION/POSITION TIME  TEMP    WIND        PRES
                       AIR SEA DIR/SP/G
                 (UTC) (F)     (DEG/KT/KT) (MB)
THOMAS PT LIGHT  1200   45 53   90/  6/  7 1015.8F
BALT KEY BRIDGE  1100   42      40/  5/  6 1015.0F
COVE POINT       1100   43     100/ 14/ 16 1015.3R
LEWISETTA        1100   49 57              1014.4R
SOLOMONS ISLAND  1100      55                N/A
PINEY POINT      1100          120/  7/  8   N/A

$$



USA.gov is the U.S. government's official web portal to all federal, state and local government web resources and services.